Wind_Speed
75 73 70 69 71 73 74 75 74 71 69 65 60 57 55 54 53 50 44 42 43 44 44 44 43 42 43 44 44 45 46 46 46 47 47 48 49 49 53 59 63 67 71 77 82 86 91 95 98 100 102 103 104 105 104 104 105 106 106 104 102 99 95 93 94 93 89 86 85 86 85 86 86 84 81 79 76 73 67 64 65 67 65 63 59 57 58
72 70 69 70 72 73 75 75 72 69 67 62 56 53 52 50 52 53 50 46 45 45 44 44 43 40 41 42 42 42 43 42 42 43 44 47 48 48 51 57 61 64 68 73 77 81 87 92 96 98 100 102 103 103 102 102 103 104 104 103 102 101 98 95 95 95 92 89 88 88 88 88 87 83 79 76 73 71 68 67 69 68 65 62 58 57 59
69 68 69 70 72 74 75 74 71 68 66 60 54 51 49 48 49 51 52 50 48 46 44 43 43 41 39 39 39 40 41 39 39 39 41 44 47 47 50 55 59 61 64 69 73 78 84 90 93 96 98 100 102 102 101 101 102 103 103 102 102 102 100 97 97 97 94 91 89 88 88 86 83 79 75 72 71 70 68 68 68 65 62 60 56 57 59
66 67 69 71 72 74 75 72 69 67 63 58 54 50 47 47 46 48 50 51 50 47 43 40 39 38 38 37 36 37 38 37 37 36 37 41 44 46 48 52 56 58 61 66 70 75 82 87 91 94 96 98 100 101 100 100 101 102 102 100 100 101 100 98 98 97 93 91 88 87 86 84 79 76 73 71 71 71 70 68 65 62 61 59 56 57 59
65 67 69 71 73 74 74 71 68 65 60 55 52 50 48 47 47 46 46 47 48 48 46 41 37 35 34 34 33 33 34 34 34 34 35 38 41 44 46 50 53 55 57 62 68 73 79 84 89 93 95 97 100 101 100 100 101 101 101 99 97 98 99 99 98 96 92 90 89 87 85 82 78 75 73 72 72 72 70 66 63 63 62 59 57 60 60
65 68 70 72 73 73 71 69 67 63 57 52 50 49 48 48 48 47 45 44 45 46 46 44 38 33 32 31 31 31 31 31 31 32 33 35 37 40 42 46 51 52 54 59 65 71 76 82 87 91 94 96 98 100 100 100 100 100 99 97 96 96 98 98 97 95 92 91 89 87 84 80 78 77 74 73 73 71 69 65 64 65 63 60 61 62 60
66 68 70 72 73 71 69 68 65 60 55 51 48 48 48 48 49 48 47 45 44 43 42 41 37 33 31 30 29 29 28 28 28 29 30 32 33 36 39 42 47 49 50 55 62 68 73 78 83 88 93 96 98 99 100 100 99 99 98 97 95 95 96 95 95 94 93 92 91 88 85 81 80 78 76 75 74 71 69 68 67 66 64 65 65 64 63
67 69 71 72 72 69 67 65 62 57 53 50 48 47 47 48 48 49 48 47 44 42 40 38 35 32 30 29 28 27 26 26 26 26 27 28 30 33 36 39 44 47 48 53 60 66 70 75 80 86 92 96 98 99 100 99 98 98 97 96 95 95 94 93 93 93 93 93 92 90 86 82 80 80 79 78 76 73 72 72 71 69 69 69 68 66 64
68 70 72 72 70 68 65 63 59 53 49 48 47 47 47 48 48 49 49 47 44 41 39 37 34 32 30 28 27 25 24 24 24 22 24 25 26 29 33 36 41 45 47 51 57 63 68 72 77 84 90 95 97 98 99 98 98 98 97 96 96 94 92 91 91 92 93 93 92 90 86 81 80 82 83 82 79 76 75 75 75 74 73 72 70 68 66
68 71 71 71 69 66 64 60 55 49 46 45 45 45 46 48 49 49 49 47 44 41 40 38 35 32 30 28 26 25 23 22 22 20 20 22 23 26 30 34 39 43 45 49 54 61 66 70 76 82 88 92 95 96 97 97 97 97 97 96 96 94 91 90 90 92 93 92 90 90 87 83 83 85 87 85 82 78 78 79 79 78 75 73 71 70 67
69 71 71 69 66 64 62 58 51 46 44 43 42 43 45 46 47 49 49 48 45 42 40 38 36 33 31 29 26 24 22 21 20 18 17 18 20 23 27 31 36 41 43 47 52 58 64 68 73 81 86 89 92 94 95 96 97 97 96 96 96 94 92 90 90 92 92 90 88 90 88 86 87 89 89 86 82 80 80 79 77 76 74 73 73 72 70
70 71 71 67 64 62 59 54 48 44 42 42 41 42 43 44 46 47 48 48 46 43 40 37 36 34 31 29 27 24 22 20 18 16 15 16 17 20 23 28 33 38 41 44 50 56 62 65 70 78 84 86 89 92 93 94 96 97 95 94 95 95 93 91 90 91 91 88 87 89 89 88 89 89 88 84 81 80 80 77 75 75 75 75 74 74 72
70 71 69 64 61 60 56 51 45 42 41 41 40 41 41 43 44 46 47 48 47 45 41 38 35 33 31 29 27 25 22 19 17 15 12 13 14 16 20 24 29 34 38 42 47 53 59 62 67 75 81 83 86 89 92 94 96 96 94 93 94 95 94 93 91 91 90 88 85 87 89 89 89 88 86 83 81 80 80 78 77 78 78 77 75 73 72
71 70 66 62 59 57 53 48 43 40 40 39 40 41 41 42 43 45 46 48 48 46 43 39 36 33 31 29 26 25 22 19 16 14 11 10 11 13 16 21 26 31 36 40 44 50 55 58 64 73 79 82 84 87 90 92 95 95 93 92 94 95 95 95 92 91 90 88 84 84 85 86 89 89 86 84 82 82 82 81 81 80 79 78 75 73 72
70 68 63 59 58 54 49 44 40 38 38 38 39 41 42 42 43 44 45 46 47 47 45 42 37 34 31 29 26 24 22 19 15 13 10 8 8 9 13 18 23 28 33 37 42 47 52 56 62 71 77 80 82 85 87 90 94 94 92 92 94 95 96 96 93 92 91 87 84 84 83 83 88 90 87 85 83 81 82 82 82 81 79 77 75 74 73
68 64 60 57 55 51 46 41 38 36 36 37 38 40 42 42 43 45 45 45 46 47 47 45 41 36 32 30 27 24 22 19 16 12 9 7 5 6 10 16 20 25 30 35 39 43 48 53 59 68 75 78 80 83 86 88 92 94 93 92 94 95 96 96 94 92 90 87 85 85 82 81 86 90 88 85 83 81 82 83 83 83 80 77 75 74 73
65 60 58 55 52 47 43 39 36 35 35 36 37 39 41 43 44 45 46 46 47 47 48 47 44 39 35 31 28 24 21 19 16 13 9 6 3 4 8 14 19 22 27 33 37 42 47 52 58 65 73 77 79 83 86 87 90 94 94 93 94 95 96 97 95 93 91 88 86 85 81 79 84 88 88 87 85 83 83 85 86 84 81 77 75 74 73
61 58 56 53 49 44 40 37 34 33 33 34 35 37 39 42 45 46 47 48 49 49 48 47 46 42 37 33 29 26 22 19 16 13 10 7 2 2 6 12 17 21 25 31 36 41 46 51 56 64 71 75 78 82 85 85 88 93 95 94 94 95 97 98 97 95 92 89 87 86 84 82 82 84 87 88 87 84 85 87 86 83 79 76 74 74 73
58 56 54 51 46 41 37 34 32 31 32 32 33 35 37 41 45 48 49 50 51 50 49 49 48 45 40 35 31 28 24 20 17 14 12 9 4 1 5 10 14 19 24 28 33 38 44 50 55 62 69 74 77 80 82 82 85 91 95 94 94 96 97 99 98 96 93 90 87 85 85 85 83 83 86 87 86 86 87 86 84 80 77 75 74 73 72
57 55 52 48 43 38 34 32 30 30 31 32 32 34 36 39 43 47 50 51 52 51 50 49 49 47 42 37 33 29 26 22 19 16 14 10 7 3 4 8 12 16 21 26 30 36 42 48 53 59 65 70 74 78 80 79 82 89 94 94 95 96 98 99 98 97 94 91 88 86 85 86 86 85 85 86 86 87 86 84 79 73 71 73 74 73 73
55 53 50 46 41 35 31 29 28 28 29 30 31 32 34 36 40 44 47 50 53 53 52 50 49 47 43 39 34 30 27 25 22 19 16 13 9 6 4 6 10 13 18 23 29 34 39 45 49 53 60 66 70 74 77 76 79 87 93 94 95 98 99 99 99 98 96 93 90 88 88 88 88 86 86 87 88 89 87 82 77 70 64 67 73 74 73
53 51 48 45 39 33 29 26 25 25 26 28 30 31 32 33 37 40 43 47 51 52 52 51 50 47 44 40 36 32 29 27 25 21 18 15 11 8 5 6 9 12 15 21 27 31 36 42 45 49 56 64 67 70 74 75 77 85 93 95 97 99 100 101 100 99 98 97 95 92 90 90 90 89 88 87 88 89 88 84 80 73 62 60 67 73 73
52 49 47 43 38 32 27 24 23 23 24 25 28 30 30 31 34 36 39 42 46 49 50 50 49 46 43 39 37 34 31 29 26 24 20 17 13 10 8 6 8 11 14 18 24 29 34 38 41 45 53 60 64 67 71 73 76 84 92 96 98 100 101 102 102 101 101 100 98 95 93 92 93 91 88 87 87 88 88 85 84 81 71 61 61 66 71
50 48 45 41 37 31 26 23 21 21 22 23 25 27 28 29 30 32 36 39 42 45 46 47 46 44 41 38 37 36 34 30 27 25 22 19 15 11 10 9 8 10 13 17 21 26 31 35 37 41 48 54 59 62 66 69 74 82 91 95 98 100 102 103 103 103 103 102 99 97 95 94 94 90 87 86 87 88 87 85 85 86 81 71 62 58 62
48 46 43 39 35 30 26 22 20 21 22 22 23 24 25 27 28 30 33 35 38 41 43 43 43 42 40 37 37 37 35 32 29 26 23 20 17 13 11 10 9 9 12 15 18 23 28 31 34 37 41 47 52 55 60 66 71 78 87 94 97 100 103 104 105 105 105 103 101 99 97 95 94 91 88 85 85 87 88 85 84 86 83 77 70 61 56
47 44 41 38 34 29 26 23 21 20 22 23 22 22 23 24 26 27 30 32 34 37 39 40 40 40 38 36 36 36 36 35 32 27 24 21 18 15 12 11 11 11 11 14 17 20 23 27 31 34 37 41 45 50 55 61 65 71 81 89 95 99 102 105 106 106 106 104 102 101 99 97 94 92 90 87 84 87 89 87 86 88 86 79 75 70 62
45 42 39 36 32 28 26 24 21 20 21 23 23 22 22 22 23 24 27 29 30 32 34 35 36 37 36 34 34 35 36 34 31 28 25 22 19 17 14 12 11 12 12 13 15 17 20 23 27 31 33 36 40 44 49 54 58 65 73 83 91 97 101 104 106 106 107 106 104 103 101 99 97 95 95 92 88 88 90 88 87 89 90 87 82 76 69
42 41 38 34 30 26 24 23 22 22 22 22 23 22 22 21 21 22 24 26 27 28 30 32 33 34 34 33 33 34 34 32 30 28 26 24 21 18 16 14 12 12 13 13 14 15 17 20 24 27 30 33 36 39 43 48 52 58 66 76 86 94 98 102 105 106 107 107 106 105 103 100 99 98 97 96 94 91 90 89 86 86 90 93 91 85 78
40 39 36 33 29 25 22 21 22 24 25 24 23 22 21 20 20 20 22 25 26 25 26 28 29 30 32 32 32 32 31 30 29 28 27 25 23 20 17 15 14 12 13 14 15 15 17 18 20 24 27 30 33 36 39 43 47 51 58 68 80 89 95 99 103 105 106 107 106 105 103 101 100 100 99 99 99 96 93 90 88 87 88 91 94 95 93
39 37 35 32 29 24 20 19 21 24 26 25 24 23 21 19 19 19 20 23 25 24 24 24 25 27 29 30 29 29 30 29 28 28 27 26 24 22 20 18 16 13 12 13 14 16 17 18 19 21 24 27 31 35 38 41 44 47 52 61 73 84 91 96 100 103 105 107 106 105 104 103 101 101 101 100 101 101 98 95 93 89 87 88 92 96 99
38 35 33 31 28 25 21 19 21 26 27 26 24 23 21 20 20 20 20 23 25 25 24 24 24 24 26 27 27 27 27 27 27 27 26 25 25 24 23 21 19 16 13 11 12 14 16 18 19 20 21 24 28 33 39 43 46 48 51 57 67 78 87 93 98 101 104 105 106 105 104 104 104 102 102 101 102 102 101 100 99 95 89 86 88 92 96
38 35 32 30 28 25 22 20 22 26 28 27 25 24 23 22 21 21 22 23 24 25 25 25 25 24 24 25 25 25 25 24 24 24 25 24 24 24 24 23 22 20 16 13 11 11 13 16 19 20 21 23 25 29 35 41 46 50 53 57 63 72 82 89 94 99 102 103 104 104 104 105 106 104 103 103 103 102 102 102 101 100 97 92 89 89 93
37 35 32 29 27 25 23 21 21 24 26 27 26 25 26 25 22 21 22 24 24 24 25 26 25 25 24 23 23 23 23 22 21 21 22 22 22 22 23 23 23 22 19 15 12 11 11 12 15 18 21 23 25 28 31 36 41 47 53 58 63 69 78 85 91 95 99 101 103 103 104 106 108 107 106 105 104 102 102 103 103 102 101 99 95 92 92
35 34 32 29 27 25 23 22 20 21 23 26 26 26 28 28 25 23 24 24 25 24 24 25 25 25 24 23 22 21 21 21 19 19 19 19 19 19 19 18 19 20 18 15 13 12 12 12 13 15 17 20 23 27 30 34 39 44 50 56 63 70 77 84 90 93 96 99 101 102 105 108 109 109 108 107 106 105 104 105 105 103 102 101 100 97 95
33 31 30 29 27 25 24 22 21 20 20 22 24 26 28 30 30 28 25 25 24 24 24 25 25 24 23 22 21 20 20 20 19 18 17 17 16 15 14 12 13 15 15 14 13 12 13 12 13 15 16 16 19 22 26 31 36 42 47 53 59 68 76 84 91 95 98 100 100 101 105 109 111 110 109 108 109 108 107 106 105 104 103 102 101 101 100
32 29 28 27 26 25 24 23 22 21 19 19 22 24 26 30 32 31 27 25 24 24 23 24 25 24 22 21 20 19 18 18 18 18 17 17 15 14 12 11 11 12 13 14 14 13 12 11 12 15 16 16 17 18 21 25 31 36 43 48 55 64 73 82 90 96 100 103 104 103 105 108 110 110 110 111 111 110 108 107 106 105 103 102 101 101 102
32 29 27 26 25 25 24 23 22 22 21 19 20 21 23 27 31 31 29 27 27 26 24 24 25 24 21 20 19 18 16 16 17 17 17 16 16 14 13 12 12 12 12 13 14 13 12 9 9 12 14 14 15 17 19 22 26 31 37 43 50 57 67 76 86 93 99 103 106 107 108 110 112 112 112 112 112 111 109 108 107 105 104 102 102 102 102
33 30 29 27 26 24 24 23 22 22 22 21 20 20 20 22 27 30 30 29 29 27 26 25 26 24 22 19 19 17 15 15 16 16 16 16 16 14 12 11 11 11 11 11 11 11 11 10 7 9 12 12 13 15 17 21 25 29 34 39 45 51 59 68 78 88 94 99 104 107 110 113 115 116 115 114 113 113 111 109 107 106 104 103 102 102 101
32 30 29 27 26 24 23 23 22 22 22 22 22 21 21 20 22 24 26 27 27 26 25 25 24 24 22 19 18 16 15 14 15 16 15 15 15 14 13 10 9 9 8 8 8 8 9 9 7 5 8 10 10 11 14 18 21 26 30 35 41 47 53 61 70 79 88 94 98 102 107 111 114 116 116 115 114 113 111 109 107 105 103 102 101 100 98
30 29 28 27 26 24 23 23 22 22 21 21 21 21 21 21 21 21 22 23 24 25 25 25 24 24 22 20 18 18 18 16 15 15 15 14 14 15 14 12 10 8 7 6 7 6 6 7 6 3 3 7 9 9 10 13 17 22 26 31 36 42 48 55 62 70 79 86 91 96 100 105 109 111 112 112 112 111 109 107 105 103 101 101 100 98 95
31 30 29 28 27 27 26 26 25 25 24 24 23 23 23 23 22 22 22 22 23 23 24 23 23 24 23 20 18 18 19 18 16 15 15 14 14 15 16 15 13 10 9 8 7 6 5 4 4 4 2 2 5 7 7 9 12 17 22 27 32 37 42 48 54 61 68 76 83 89 93 98 103 106 107 108 108 108 107 105 103 101 100 99 98 97 95
33 32 30 29 28 27 27 26 26 26 26 25 25 25 25 25 25 24 24 25 25 25 25 24 23 23 22 20 19 18 19 20 18 16 15 14 14 14 16 17 16 14 12 11 9 7 7 5 2 3 3 2 0 3 6 8 10 13 17 22 26 31 36 41 46 52 59 66 74 80 86 91 96 100 104 105 106 106 106 105 103 101 99 98 97 97 96
33 32 30 28 27 26 27 27 27 27 27 26 25 25 25 25 26 25 25 26 26 26 26 26 25 24 24 23 23 22 21 20 19 17 16 15 15 15 16 17 17 16 14 13 12 10 10 9 5 2 2 3 3 2 3 6 10 12 14 17 21 25 30 34 39 44 50 57 64 71 77 83 88 94 98 102 104 105 105 105 103 101 100 98 98 97 96
31 30 29 29 28 29 30 30 30 30 30 29 29 28 28 28 27 27 26 26 26 26 26 26 25 24 23 23 23 23 22 21 20 18 16 15 16 17 17 18 18 18 16 15 15 14 14 13 10 6 4 4 5 5 5 6 8 11 13 15 17 20 24 29 33 38 43 49 55 62 68 75 81 86 91 96 100 102 103 103 103 102 101 100 98 97 96
29 29 29 30 31 31 31 30 30 30 29 29 29 28 28 27 27 26 26 26 26 26 26 26 25 25 24 23 22 22 21 21 21 20 18 16 16 16 18 19 20 19 19 18 17 17 17 16 14 11 9 8 8 8 8 8 9 9 11 13 15 18 21 24 28 33 38 42 48 54 60 66 73 79 84 89 93 97 99 101 102 102 101 101 100 98 97
30 30 30 30 30 30 30 29 29 29 28 28 27 27 26 27 27 26 26 26 25 25 24 24 25 25 25 25 24 22 22 21 21 21 20 19 18 17 17 18 20 21 20 20 20 19 19 18 17 16 14 13 12 11 10 10 10 10 10 11 13 15 18 21 25 29 33 37 41 46 52 58 64 70 76 81 86 90 94 97 100 101 101 101 100 99 98
30 30 29 29 29 29 28 28 28 28 27 27 27 27 27 27 28 27 27 27 26 26 25 25 25 24 24 24 24 24 23 22 21 20 20 19 19 19 18 18 19 20 21 21 21 21 21 21 20 20 19 17 16 14 13 12 12 12 12 12 12 14 16 19 22 26 29 32 36 40 45 50 55 61 67 73 78 82 87 91 95 98 100 101 101 100 100
30 29 29 29 28 28 28 28 28 28 28 28 28 29 30 30 30 30 30 29 29 28 28 27 27 27 26 25 25 24 24 23 22 21 20 19 18 18 18 18 19 20 21 22 23 23 23 22 22 22 21 21 20 18 16 15 14 14 15 14 14 14 16 18 20 23 25 29 32 35 39 42 47 53 59 64 70 75 79 83 88 92 96 99 101 101 101
30 31 31 31 31 30 29 29 29 29 29 30 31 31 31 32 32 32 32 31 31 30 30 29 29 29 28 27 25 25 25 25 24 22 21 20 19 18 17 17 18 19 20 21 22 24 24 24 24 23 23 23 23 22 21 19 17 16 17 18 17 16 16 17 19 20 23 25 28 31 34 37 41 45 50 56 61 67 71 76 80 85 90 94 98 100 102
32 32 32 32 32 32 32 32 32 32 32 33 34 35 35 35 35 35 35 34 34 33 33 33 32 31 30 30 29 28 27 25 24 23 23 22 22 20 18 17 17 18 19 21 22 23 25 26 26 25 25 25 25 25 25 23 21 19 19 20 20 19 17 17 18 19 21 23 25 27 29 33 37 40 44 48 53 58 63 68 73 78 83 88 93 97 101
34 34 34 35 36 36 36 36 36 36 37 37 38 38 38 39 39 39 38 38 38 38 37 37 36 35 34 33 32 31 30 29 28 27 25 24 23 22 21 20 18 18 18 20 21 23 24 26 27 27 27 26 26 27 27 27 26 24 22 22 22 22 20 19 18 19 20 22 23 25 26 29 32 35 39 42 46 50 55 61 66 71 76 81 86 92 96
37 38 38 38 38 38 37 37 37 37 37 38 39 39 39 40 41 41 41 40 39 39 39 39 38 37 37 36 35 34 33 32 30 28 26 24 23 22 22 22 21 20 19 19 20 22 24 25 27 28 29 28 28 28 29 30 30 28 26 25 24 24 24 23 21 20 21 22 22 23 24 26 29 31 34 38 41 45 49 54 59 64 69 74 79 85 90
Wind_Direction
324 323 324 324 325 325 326 327 327 327 327 328 326 324 323 322 318 315 314 313 309 305 303 299 295 292 288 283 278 274 271 269 266 262 258 253 247 240 236 234 232 229 226 225 223 221 221 221 221 222 221 220 221 222 222 223 224 224 224 223 223 224 223 222 225 228 229 228 229 229 229 228 228 228 228 229 230 231 231 229 230 231 231 232 232 232 235
324 324 325 326 326 326 328 328 328 329 329 329 328 325 324 324 322 318 318 318 315 311 310 306 302 298 292 286 282 278 274 271 268 262 257 253 248 241 236 234 231 228 225 224 222 220 220 220 220 220 220 219 219 220 220 221 222 223 223 221 221 222 222 221 223 224 225 225 225 226 228 229 230 229 228 228 230 231 230 229 231 231 231 232 232 232 233
325 325 326 326 327 328 329 329 330 331 330 329 328 327 326 326 324 321 320 320 318 315 314 311 308 304 298 291 287 282 278 274 270 263 256 252 249 242 237 234 231 227 224 223 221 219 219 218 218 219 219 217 217 218 218 219 220 222 222 221 220 220 220 220 222 223 223 224 224 225 227 229 230 230 230 229 230 231 231 231 232 234 233 233 232 232 234
326 327 327 328 329 330 330 330 331 332 331 330 329 329 328 327 325 324 323 322 320 317 316 314 310 306 301 296 290 285 281 277 272 266 257 251 247 243 237 235 233 228 223 222 220 218 217 217 217 217 218 217 216 216 217 217 218 219 220 219 218 219 219 219 222 223 222 223 224 225 226 227 228 228 229 229 230 231 231 230 231 232 233 232 231 232 233
328 327 328 330 331 331 331 331 332 333 332 331 330 330 330 329 327 326 325 324 323 321 320 319 315 309 303 298 293 287 282 278 273 267 259 251 246 243 238 235 233 229 223 220 219 217 216 216 215 215 216 215 215 215 215 215 217 217 218 218 217 218 218 218 220 222 222 223 223 224 225 227 227 227 226 227 228 230 230 230 229 230 231 230 230 231 233
328 328 330 331 332 332 333 332 333 333 332 332 332 332 331 330 329 329 329 328 327 325 323 321 318 312 306 300 295 290 285 279 274 268 261 253 247 242 237 234 233 230 224 220 219 217 216 215 214 214 214 214 214 214 214 214 215 215 216 216 216 216 217 218 219 221 222 223 223 223 223 225 226 226 226 225 226 227 229 229 228 229 230 229 229 231 232
329 330 331 332 333 334 334 333 334 334 333 334 334 333 332 332 332 333 334 333 331 328 325 323 320 316 311 305 299 294 289 282 276 270 263 255 248 243 236 232 232 230 224 220 218 217 216 215 214 213 213 213 213 213 213 213 213 213 213 214 214 214 215 216 217 218 220 221 222 222 221 221 223 225 226 226 225 224 226 227 227 227 229 229 229 229 230
330 332 332 332 334 335 334 334 335 335 335 335 335 334 334 335 336 338 338 337 334 332 330 327 324 320 316 311 305 300 294 287 279 273 266 257 248 243 236 230 230 228 223 219 218 217 216 215 214 212 212 213 212 211 212 211 211 211 211 211 212 213 213 213 215 217 218 219 221 221 219 219 221 223 224 225 224 222 222 224 226 226 226 229 229 229 230
332 332 332 333 335 335 335 336 336 336 336 336 335 336 337 338 340 341 341 340 338 337 335 333 330 326 322 317 311 306 301 294 285 276 269 261 249 241 235 228 227 226 222 217 216 216 215 214 213 212 212 212 211 210 210 210 209 209 209 208 210 211 211 211 213 215 217 218 219 220 218 217 219 222 224 224 223 222 221 223 224 225 225 227 229 229 229
333 333 333 335 336 335 335 336 336 336 337 336 336 337 340 343 344 345 344 343 342 342 340 338 336 332 327 323 317 312 308 301 293 282 271 264 252 241 234 227 224 224 220 216 215 214 213 212 212 212 212 212 211 209 208 208 208 208 207 206 208 209 209 209 211 214 215 216 217 219 218 215 217 221 223 223 222 222 222 223 224 225 225 225 227 228 228
333 333 334 336 336 335 336 337 337 337 337 337 337 340 344 347 348 348 347 346 346 346 345 342 339 337 333 328 323 318 314 308 299 288 276 266 254 242 234 226 223 222 219 215 213 213 212 211 210 211 212 212 211 209 207 207 208 207 205 204 205 207 208 208 210 212 214 213 215 218 217 215 216 219 222 222 221 222 223 224 227 228 229 228 228 228 227
334 334 335 336 336 336 337 337 337 338 337 337 339 343 347 349 350 351 351 350 349 348 349 347 344 341 337 332 328 324 319 314 305 295 282 268 256 242 234 227 222 221 218 214 212 211 212 210 209 210 212 212 211 209 206 206 207 207 204 202 203 205 207 207 208 211 212 211 214 217 216 215 216 218 221 221 221 222 224 224 226 229 230 230 229 229 229
334 334 335 336 336 336 337 337 338 338 337 337 341 345 349 351 353 354 355 354 352 351 351 351 349 345 342 337 333 329 325 321 313 303 289 270 256 241 232 226 221 219 217 213 211 210 210 209 207 209 212 212 211 210 206 204 206 207 203 201 202 204 205 207 207 209 211 209 211 216 216 215 216 217 219 220 220 222 223 223 223 225 227 228 229 230 230
334 334 335 337 337 337 337 337 338 338 337 338 342 346 350 353 355 357 358 357 355 354 353 354 354 351 347 343 339 335 331 328 321 313 301 277 256 239 228 223 219 216 214 212 210 209 209 207 205 207 210 212 211 210 207 204 205 206 203 200 202 204 205 206 206 208 209 207 209 214 215 215 216 216 216 218 219 220 222 222 222 223 224 226 226 227 228
334 334 336 337 337 337 337 337 337 337 337 340 345 348 351 355 357 358 360 0 359 358 356 356 357 356 353 350 347 342 337 334 329 321 311 287 258 235 223 219 216 214 212 210 208 207 207 205 204 205 209 211 210 210 208 204 203 205 203 199 201 203 204 206 206 206 208 206 206 212 215 215 216 215 214 216 219 220 222 222 222 222 223 224 225 226 226
334 334 336 338 338 337 336 336 336 337 338 342 347 350 353 356 358 359 0 2 3 3 1 359 359 359 358 356 354 350 345 342 339 335 327 307 271 233 217 213 212 211 209 207 205 205 204 203 202 204 207 210 210 209 209 205 201 203 202 199 200 203 204 205 206 206 207 205 205 210 212 214 217 216 213 214 216 219 222 224 223 222 221 221 224 226 227
334 335 337 338 338 337 336 335 336 337 340 344 349 353 355 356 358 0 2 3 5 6 5 3 1 1 1 0 359 358 355 352 350 349 345 333 297 234 212 207 206 205 206 205 202 200 201 200 201 203 205 208 209 209 210 206 201 201 202 199 199 202 204 205 205 206 206 205 205 207 209 211 216 217 214 213 213 216 220 224 224 223 221 220 221 224 226
335 336 338 338 338 337 334 334 335 337 340 345 350 354 356 358 359 0 3 5 6 6 7 6 4 3 3 3 3 3 3 2 2 2 1 358 350 213 201 202 202 200 201 203 200 198 198 198 199 201 204 207 208 208 210 207 201 200 201 199 199 201 204 205 205 205 205 205 204 206 209 211 215 217 216 213 212 214 218 222 224 224 222 220 220 222 225
336 337 338 339 338 337 333 332 334 337 340 346 351 355 357 0 1 1 2 4 5 6 7 8 7 5 5 6 7 7 8 10 12 15 15 13 18 106 177 192 198 198 197 199 198 197 197 197 198 200 202 205 206 207 209 207 201 199 201 199 198 201 204 205 205 204 205 205 204 204 208 211 213 215 216 214 212 213 216 219 221 223 223 221 220 222 224
337 337 338 339 339 336 332 331 333 336 340 345 351 355 358 2 4 2 1 2 3 5 8 9 9 7 6 7 9 11 13 15 18 22 26 26 31 59 149 175 188 195 195 194 193 195 196 198 199 199 201 204 205 206 208 207 201 199 200 199 198 200 204 205 205 204 203 205 204 204 206 210 213 215 216 214 213 213 214 216 218 220 223 222 220 220 223
337 337 338 339 339 336 332 330 331 334 338 342 348 354 358 2 5 4 2 1 1 3 7 10 10 9 8 8 10 13 17 21 23 26 30 35 40 54 110 157 174 187 193 191 190 192 195 198 200 199 200 204 205 205 207 206 201 199 200 199 198 200 203 205 205 204 203 204 204 203 205 209 212 214 216 216 214 214 214 214 213 213 217 222 221 219 220
337 337 338 339 339 336 332 328 328 331 335 340 346 350 356 2 5 4 3 2 0 1 4 9 11 10 9 10 12 15 20 24 27 29 32 38 46 60 87 137 163 174 185 190 190 191 193 197 199 198 199 203 205 205 206 206 201 199 200 199 198 200 202 204 205 204 203 203 203 203 204 208 210 213 215 215 215 213 212 212 210 207 209 218 222 220 219
337 338 338 338 338 337 332 327 326 327 330 336 342 346 352 360 3 3 3 3 1 360 2 6 10 11 12 14 16 18 21 26 30 32 35 38 44 60 82 115 153 165 176 186 189 189 192 195 198 197 198 202 204 204 205 205 201 199 200 200 199 199 202 204 204 204 204 203 203 202 203 206 209 211 212 214 215 214 212 211 208 204 203 209 218 221 220
337 338 337 337 337 335 331 326 322 321 324 331 337 341 348 355 359 2 4 4 2 0 360 3 7 10 12 17 22 24 25 27 31 35 38 41 44 56 78 101 132 156 169 179 185 189 191 193 195 196 199 202 205 205 205 205 202 200 200 200 199 199 201 203 204 205 205 204 203 202 203 205 208 209 210 212 215 215 213 210 209 206 204 205 210 215 218
338 338 337 336 335 333 330 326 319 315 317 323 330 337 343 348 352 359 4 4 3 1 359 0 4 7 11 18 25 28 28 28 31 35 40 45 50 56 73 95 115 141 161 170 178 187 191 190 191 194 197 201 205 205 205 205 204 201 201 201 200 200 201 203 204 205 205 204 203 203 203 204 207 209 210 210 213 215 214 211 209 206 204 205 207 209 211
337 337 337 336 334 331 328 325 321 315 311 315 323 330 336 341 346 355 0 2 3 3 1 359 1 5 10 17 24 30 32 31 31 35 39 45 52 58 70 90 110 127 148 162 171 181 187 189 189 190 193 198 203 205 206 206 206 203 202 201 201 201 201 203 204 205 205 204 203 204 204 203 204 207 209 209 211 214 216 213 211 209 206 203 203 205 207
337 337 337 335 332 328 324 323 322 317 311 311 315 320 326 333 340 348 354 357 0 4 3 0 360 2 6 13 21 29 33 34 33 35 39 44 52 60 69 84 103 120 136 151 162 172 180 186 188 188 189 193 198 203 206 207 207 205 204 203 202 202 202 203 204 205 206 205 204 204 204 204 204 206 208 208 209 213 216 215 214 213 211 205 200 201 205
338 338 337 335 332 327 321 319 318 316 313 310 309 311 317 325 334 342 346 348 355 2 5 3 1 359 0 9 19 25 29 32 34 36 40 44 50 57 67 79 95 113 129 141 153 163 172 181 185 186 186 188 191 197 204 208 208 207 205 204 204 204 204 204 205 206 206 206 205 204 204 204 204 205 208 209 209 212 214 215 215 214 214 210 205 201 202
340 338 337 335 333 326 317 313 311 309 310 311 313 316 316 318 327 337 337 337 345 355 1 4 3 358 357 6 16 21 22 25 31 36 40 44 48 54 63 73 86 103 122 135 146 155 163 172 180 184 185 186 186 189 196 204 207 208 206 205 206 207 206 205 206 206 207 207 206 205 205 205 205 206 208 209 211 212 213 213 214 214 214 213 210 205 204
341 339 336 335 333 325 314 304 299 299 305 312 320 326 325 320 323 329 328 328 335 344 351 356 0 2 1 3 8 14 17 20 25 31 37 42 47 52 58 66 76 89 108 127 141 150 157 164 172 179 183 185 185 185 189 195 201 205 208 207 207 207 208 207 207 208 208 208 207 206 205 206 206 208 209 210 212 213 213 213 215 215 214 215 214 211 208
342 341 337 335 333 326 314 299 289 292 302 312 319 324 329 328 323 320 317 318 325 333 341 345 351 1 6 3 0 4 10 16 20 26 33 39 45 51 55 59 66 74 88 110 131 145 153 159 166 172 178 184 187 187 189 190 192 196 202 206 207 208 209 209 208 209 209 209 208 207 207 207 207 208 210 211 213 214 214 215 216 215 213 213 215 214 213
341 341 339 336 333 329 319 304 290 290 299 308 313 318 323 325 322 317 313 312 316 323 331 335 340 352 2 3 359 357 359 7 16 22 27 33 41 48 53 57 61 64 69 82 106 131 148 158 164 169 174 182 188 191 193 192 190 190 194 199 202 206 209 210 210 210 210 210 210 208 208 209 209 209 210 212 214 214 216 217 217 217 215 213 212 214 215
340 341 340 338 335 332 326 314 298 290 293 299 307 314 318 319 321 321 317 315 314 316 319 323 329 338 347 354 357 354 350 356 7 17 22 27 34 42 50 56 60 61 62 68 83 106 130 149 163 170 175 180 187 191 194 195 193 191 193 196 197 200 205 210 211 211 211 211 210 209 210 211 211 210 211 212 214 215 216 218 219 219 219 217 215 215 216
342 341 341 340 338 336 334 327 314 299 291 291 297 303 307 310 315 319 318 317 317 316 316 318 322 327 332 340 349 352 348 349 357 8 14 18 25 34 43 53 62 66 68 72 82 99 115 130 150 165 173 180 187 191 193 195 194 194 196 197 198 199 201 205 209 212 213 213 212 210 210 212 213 212 212 213 214 214 216 218 219 220 221 221 221 220 220
345 343 342 342 341 340 339 337 328 315 301 292 290 293 297 303 307 311 314 315 316 317 319 320 322 323 324 329 338 345 346 345 348 356 2 7 14 23 30 43 59 71 78 83 90 100 111 125 143 155 162 173 183 190 195 197 197 197 197 198 199 201 201 203 206 208 211 213 213 212 212 213 214 213 213 214 215 215 215 217 219 220 221 222 223 223 224
348 347 345 344 343 342 341 341 337 331 320 305 293 290 292 294 298 304 310 313 314 317 320 321 322 322 321 322 327 333 338 340 341 345 350 354 360 8 16 27 44 60 70 74 79 85 95 115 139 148 152 161 171 181 192 199 201 202 202 201 201 202 204 205 206 207 208 210 211 211 212 214 216 215 214 214 216 216 216 216 218 219 220 221 222 224 225
350 350 349 348 347 345 343 343 342 339 335 326 312 301 294 290 292 300 308 311 313 316 318 317 317 317 315 315 316 319 326 331 332 335 338 340 345 354 5 15 26 40 53 61 66 70 74 89 123 139 143 152 162 172 184 195 201 205 206 206 205 205 206 207 209 209 209 209 209 208 209 212 215 216 215 215 216 217 217 217 217 218 219 220 221 223 224
353 353 353 352 352 349 346 345 345 344 342 338 331 322 310 297 294 299 304 308 310 311 310 309 309 309 309 309 308 308 312 317 320 325 328 329 333 342 352 2 13 22 33 45 57 66 68 69 91 122 132 141 156 170 180 190 198 204 207 208 208 208 208 209 211 212 213 212 211 209 208 210 212 214 215 215 216 217 217 217 218 218 219 220 220 221 223
355 356 356 355 355 353 351 349 348 347 345 343 340 336 330 320 311 307 307 308 308 308 308 308 308 307 307 306 303 301 301 304 307 311 316 318 322 328 334 342 354 4 12 22 35 52 66 64 61 92 127 136 148 165 179 187 195 202 206 209 210 210 210 211 212 214 215 216 215 214 212 212 213 214 215 215 216 216 217 217 218 218 219 220 221 222 222
359 360 359 357 358 358 357 355 353 352 351 348 346 344 342 337 332 327 322 317 315 315 315 315 313 311 309 307 303 299 298 298 299 300 303 306 309 312 315 320 327 335 343 353 360 10 37 53 48 47 130 141 142 152 172 186 195 201 205 208 211 212 213 213 214 215 216 218 219 218 217 216 216 217 217 217 217 218 218 218 218 218 219 220 221 222 221
3 3 2 1 1 2 3 2 0 359 357 355 353 351 349 346 343 341 336 331 328 327 327 326 322 318 315 312 308 301 298 299 299 296 294 294 295 297 300 303 305 306 308 311 319 329 342 12 33 24 14 137 145 149 163 180 195 204 208 209 211 213 215 216 216 216 217 218 220 221 221 220 219 219 219 219 219 219 220 219 219 218 219 220 221 221 221
5 5 5 6 6 6 6 5 3 2 1 360 357 355 353 351 349 347 344 340 338 338 337 336 333 329 326 325 324 317 309 304 302 297 292 288 285 282 285 289 290 291 291 290 291 296 300 306 338 12 355 338 203 171 174 179 188 200 209 212 214 214 215 216 217 218 218 219 220 221 222 222 221 221 221 221 221 221 221 221 220 220 220 220 221 221 221
5 4 5 7 8 8 9 9 8 8 6 4 1 359 358 356 354 351 348 345 343 341 340 338 337 335 332 330 329 325 319 313 308 301 294 288 282 277 276 278 280 282 282 280 276 274 277 282 285 296 315 315 307 277 223 199 193 195 202 209 213 215 216 217 217 218 219 219 220 221 222 223 223 222 222 222 222 222 221 222 222 221 220 220 221 222 222
3 1 3 6 9 11 12 11 11 10 8 6 5 3 2 359 357 355 353 350 348 346 344 341 339 336 333 329 327 324 321 319 316 310 301 290 281 276 274 273 274 276 276 274 270 267 268 271 275 277 279 284 287 284 270 244 220 206 200 202 207 211 213 216 217 217 218 219 220 221 222 222 223 223 223 223 223 223 222 222 222 222 221 221 221 222 222
3 2 5 8 11 12 12 11 11 10 9 8 8 6 3 1 360 359 358 356 354 351 349 346 343 341 338 334 331 326 322 320 318 315 311 303 291 280 272 269 269 270 270 269 268 266 265 266 267 264 261 265 270 272 270 263 250 231 211 201 201 205 208 211 214 216 217 218 219 220 221 222 223 223 224 224 224 224 223 223 223 223 222 221 221 222 223
5 6 10 12 13 13 12 12 12 11 10 10 9 8 6 6 5 4 3 1 359 357 355 352 350 347 343 339 337 334 331 327 322 317 313 310 304 293 282 272 266 264 263 264 264 262 261 262 261 258 255 256 263 269 270 267 262 253 235 213 203 202 205 208 212 214 215 216 218 219 220 222 223 224 224 224 224 224 224 223 223 223 223 222 222 222 222
8 11 14 14 15 15 14 13 12 11 10 10 9 8 8 8 8 6 5 3 2 1 1 359 355 352 349 346 343 340 336 333 328 321 316 310 304 298 292 283 273 265 261 259 259 259 258 257 256 255 254 254 257 264 267 264 260 258 252 237 220 212 210 210 211 213 214 215 216 218 219 221 222 224 224 225 225 225 225 224 223 223 223 223 222 222 222
12 14 16 17 17 17 15 14 13 11 10 9 9 9 8 8 7 6 5 4 3 2 2 1 359 357 354 352 348 343 339 337 334 329 323 317 309 300 294 288 281 273 266 259 255 254 254 253 252 251 251 251 253 257 260 260 258 256 255 251 241 230 223 218 215 213 214 215 216 217 218 220 221 223 224 225 225 225 225 225 224 223 223 222 222 222 222
17 17 17 18 18 18 16 16 15 13 11 10 10 10 9 7 6 5 4 3 2 1 0 0 360 358 355 353 350 348 345 342 338 334 329 324 319 310 301 291 284 278 272 266 259 253 251 251 250 248 246 247 249 251 254 255 255 254 254 254 253 246 236 229 223 218 217 217 217 217 217 219 220 221 222 224 225 225 225 225 225 224 223 222 222 222 221
21 21 20 20 19 19 18 18 17 15 15 14 13 12 10 8 7 5 4 2 1 0 359 359 358 356 355 353 352 350 347 344 341 338 336 332 328 321 313 302 291 281 275 270 265 258 253 250 249 248 245 243 244 246 249 251 253 252 252 253 254 252 248 242 236 231 226 223 221 219 219 219 219 220 221 222 223 224 225 225 225 224 224 223 222 221 221
23 23 24 24 24 23 22 23 22 22 22 21 20 17 16 14 12 9 7 5 3 1 360 358 356 354 353 353 352 350 347 345 343 341 338 334 330 324 317 310 300 289 280 273 268 264 258 252 249 248 246 243 241 241 244 246 249 250 250 249 250 251 251 249 245 243 240 234 228 225 224 222 221 220 220 221 222 223 224 224 224 224 224 223 222 222 221
27 27 27 27 26 26 25 25 25 26 26 26 24 22 21 19 18 15 12 9 7 5 2 359 356 354 353 352 351 349 347 344 341 337 334 331 328 324 318 312 304 295 286 277 270 265 262 257 252 248 246 244 241 239 239 241 244 247 248 248 247 248 250 250 249 247 246 244 239 234 230 228 225 223 221 221 221 221 222 223 223 223 223 223 222 222 221
Height
10640 10633 10626 10619 10611 10604 10597 10590 10582 10573 10564 10556 10547 10538 10530 10522 10514 10512 10514 10513 10507 10501 10496 10491 10489 10487 10482 10479 10478 10477 10475 10475 10475 10475 10476 10477 10480 10484 10486 10487 10492 10498 10504 10511 10520 10530 10540 10549 10557 10564 10574 10586 10596 10605 10618 10629 10639 10648 10662 10678 10692 10704 10717 10725 10727 10734 10748 10761 10767 10770 10776 10778 10779 10787 10796 10801 10808 10818 10829 10835 10833 10832 10838 10843 10850 10856 10855
10632 10625 10618 10612 10604 10597 10589 10581 10573 10565 10557 10550 10544 10535 10527 10520 10510 10502 10501 10502 10498 10494 10489 10483 10479 10478 10474 10470 10468 10467 10466 10466 10466 10466 10466 10467 10468 10472 10474 10476 10479 10486 10492 10499 10508 10519 10527 10534 10543 10551 10561 10573 10584 10594 10607 10618 10628 10638 10650 10668 10682 10691 10703 10713 10717 10722 10733 10744 10751 10756 10762 10765 10771 10783 10793 10800 10807 10814 10821 10823 10821 10826 10834 10839 10846 10850 10849
10625 10618 10611 10605 10597 10589 10581 10573 10565 10558 10550 10542 10537 10531 10524 10517 10509 10500 10494 10492 10490 10486 10483 10477 10472 10468 10465 10462 10460 10458 10456 10457 10456 10456 10456 10457 10458 10461 10464 10465 10468 10475 10483 10489 10497 10507 10513 10520 10530 10538 10548 10561 10572 10583 10596 10607 10616 10625 10639 10657 10670 10677 10691 10703 10705 10709 10720 10731 10741 10748 10752 10759 10771 10784 10793 10800 10803 10807 10814 10817 10819 10826 10832 10836 10843 10845 10843
10618 10611 10604 10598 10591 10582 10574 10565 10558 10552 10544 10536 10530 10525 10519 10514 10508 10500 10491 10484 10480 10478 10476 10472 10467 10462 10457 10454 10452 10450 10448 10447 10447 10446 10447 10447 10448 10450 10453 10456 10459 10466 10474 10479 10487 10494 10500 10508 10517 10526 10536 10549 10559 10570 10584 10595 10604 10614 10629 10646 10660 10669 10683 10694 10696 10703 10715 10726 10736 10744 10748 10755 10768 10780 10789 10794 10796 10799 10804 10810 10817 10823 10825 10831 10838 10837 10837
10612 10605 10598 10591 10584 10576 10566 10558 10551 10545 10538 10532 10524 10518 10513 10508 10503 10499 10492 10483 10475 10469 10466 10464 10460 10456 10452 10448 10445 10443 10441 10439 10439 10438 10438 10438 10439 10441 10445 10448 10451 10458 10465 10471 10476 10482 10489 10496 10505 10514 10524 10535 10546 10558 10572 10582 10593 10606 10620 10637 10651 10662 10673 10682 10689 10700 10713 10721 10728 10736 10743 10753 10764 10773 10780 10785 10788 10791 10796 10805 10813 10815 10817 10825 10830 10828 10830
10606 10599 10592 10585 10578 10570 10560 10552 10545 10538 10532 10527 10520 10513 10508 10502 10496 10492 10488 10481 10473 10465 10459 10455 10452 10449 10446 10442 10438 10436 10434 10432 10431 10431 10430 10430 10431 10433 10437 10440 10444 10450 10457 10462 10466 10472 10478 10485 10494 10503 10513 10522 10533 10546 10560 10572 10584 10598 10613 10629 10643 10653 10663 10675 10685 10697 10708 10714 10720 10729 10740 10750 10758 10764 10771 10777 10781 10786 10793 10802 10806 10807 10811 10818 10819 10819 10824
10600 10593 10586 10579 10572 10564 10555 10547 10539 10532 10526 10521 10516 10510 10504 10498 10492 10486 10480 10475 10469 10463 10456 10450 10446 10442 10439 10436 10432 10430 10428 10426 10425 10424 10422 10423 10424 10426 10429 10433 10436 10442 10449 10454 10457 10462 10469 10476 10484 10494 10502 10511 10522 10534 10548 10562 10577 10591 10606 10620 10633 10643 10655 10669 10678 10688 10697 10704 10710 10720 10731 10743 10750 10757 10764 10770 10775 10782 10788 10792 10795 10800 10805 10806 10807 10811 10816
10594 10587 10580 10573 10566 10558 10551 10543 10535 10528 10521 10515 10511 10506 10500 10494 10488 10482 10476 10470 10464 10458 10452 10446 10441 10437 10434 10430 10427 10424 10422 10420 10419 10418 10416 10417 10418 10419 10422 10426 10429 10434 10441 10446 10449 10454 10462 10469 10477 10485 10493 10500 10510 10522 10536 10551 10567 10582 10597 10612 10623 10634 10647 10660 10669 10677 10685 10692 10699 10709 10722 10736 10744 10748 10753 10758 10766 10774 10779 10780 10784 10790 10793 10793 10797 10804 10809
10589 10582 10575 10568 10560 10552 10546 10539 10532 10525 10518 10512 10506 10501 10496 10490 10484 10478 10472 10467 10461 10454 10448 10442 10437 10433 10429 10425 10422 10419 10417 10414 10413 10412 10411 10410 10412 10413 10416 10419 10422 10426 10432 10437 10441 10446 10454 10463 10470 10477 10484 10490 10500 10513 10527 10543 10558 10572 10588 10603 10614 10625 10639 10652 10660 10666 10672 10682 10693 10703 10716 10730 10737 10738 10740 10746 10755 10764 10769 10770 10772 10776 10781 10784 10790 10796 10803
10584 10576 10569 10562 10555 10547 10540 10534 10528 10522 10516 10510 10505 10499 10493 10487 10481 10475 10469 10463 10458 10451 10444 10438 10434 10429 10425 10421 10417 10415 10412 10410 10407 10407 10406 10405 10406 10408 10410 10413 10415 10418 10424 10429 10434 10439 10446 10455 10462 10468 10475 10483 10493 10506 10520 10535 10549 10563 10579 10594 10606 10618 10631 10642 10649 10654 10662 10676 10687 10696 10709 10721 10725 10723 10725 10733 10745 10755 10759 10760 10761 10765 10773 10780 10784 10789 10796
10578 10571 10564 10557 10550 10542 10536 10530 10524 10519 10513 10509 10504 10498 10492 10486 10480 10473 10467 10460 10454 10448 10442 10436 10430 10426 10422 10417 10413 10410 10408 10406 10403 10402 10402 10401 10402 10403 10404 10407 10409 10412 10417 10422 10427 10432 10438 10446 10455 10461 10467 10476 10487 10499 10514 10528 10541 10554 10571 10586 10599 10611 10622 10631 10639 10645 10655 10670 10680 10686 10698 10707 10708 10707 10711 10723 10737 10745 10749 10755 10761 10767 10773 10776 10778 10780 10786
10573 10565 10558 10552 10545 10538 10532 10526 10521 10515 10510 10506 10501 10496 10491 10485 10479 10472 10465 10459 10452 10446 10441 10435 10428 10423 10418 10414 10410 10406 10404 10402 10400 10399 10398 10397 10398 10399 10400 10402 10404 10407 10412 10416 10421 10425 10432 10441 10450 10456 10462 10471 10481 10493 10508 10522 10533 10546 10563 10579 10591 10603 10612 10621 10630 10637 10648 10663 10672 10676 10685 10693 10696 10698 10706 10719 10732 10739 10744 10753 10761 10764 10764 10767 10771 10775 10781
10568 10560 10553 10547 10540 10533 10528 10522 10517 10512 10507 10503 10499 10494 10490 10484 10478 10471 10464 10458 10451 10444 10439 10433 10427 10421 10416 10411 10407 10403 10400 10398 10396 10395 10394 10394 10394 10395 10396 10398 10400 10403 10407 10411 10415 10420 10427 10437 10446 10452 10457 10466 10477 10488 10501 10515 10527 10539 10556 10573 10584 10594 10603 10612 10622 10630 10640 10655 10665 10667 10674 10683 10688 10694 10703 10715 10725 10732 10737 10744 10749 10750 10750 10756 10764 10771 10778
10563 10555 10549 10543 10536 10530 10524 10519 10515 10510 10505 10501 10497 10492 10488 10482 10477 10471 10464 10457 10451 10443 10437 10432 10426 10420 10415 10409 10405 10401 10397 10395 10393 10392 10391 10390 10391 10392 10393 10394 10396 10399 10402 10406 10411 10417 10424 10433 10442 10448 10453 10461 10472 10482 10494 10508 10521 10533 10549 10566 10577 10586 10594 10602 10613 10621 10630 10646 10657 10660 10666 10674 10680 10687 10697 10705 10713 10720 10725 10731 10736 10739 10742 10749 10758 10765 10771
10558 10551 10545 10539 10532 10526 10521 10516 10512 10508 10503 10499 10495 10490 10485 10480 10475 10470 10464 10458 10451 10443 10436 10430 10425 10419 10414 10408 10404 10399 10395 10393 10391 10390 10389 10388 10388 10389 10390 10391 10393 10395 10398 10402 10407 10413 10420 10430 10438 10443 10448 10456 10466 10477 10487 10502 10516 10528 10542 10558 10569 10578 10586 10594 10604 10613 10622 10637 10650 10653 10659 10665 10670 10678 10688 10697 10706 10714 10718 10723 10728 10732 10738 10746 10754 10759 10766
10553 10546 10540 10534 10528 10523 10518 10514 10510 10506 10501 10497 10493 10488 10484 10479 10474 10468 10463 10458 10451 10444 10437 10430 10424 10418 10413 10408 10403 10399 10395 10391 10389 10388 10387 10386 10386 10386 10387 10388 10390 10392 10395 10399 10404 10411 10418 10426 10434 10440 10445 10451 10461 10471 10480 10493 10509 10521 10534 10549 10562 10571 10579 10588 10598 10607 10616 10629 10639 10645 10652 10658 10661 10670 10682 10692 10701 10708 10712 10716 10720 10724 10732 10742 10751 10756 10762
10549 10542 10536 10531 10525 10520 10515 10511 10508 10504 10500 10496 10492 10488 10483 10478 10473 10467 10462 10456 10450 10444 10438 10432 10425 10419 10413 10408 10403 10399 10395 10391 10388 10386 10385 10385 10385 10385 10385 10386 10387 10389 10393 10396 10401 10408 10414 10422 10429 10435 10440 10446 10455 10464 10472 10483 10500 10513 10525 10540 10555 10565 10572 10580 10590 10600 10610 10621 10630 10639 10648 10652 10656 10665 10675 10683 10691 10699 10703 10705 10707 10715 10727 10739 10748 10753 10758
10544 10538 10532 10527 10522 10517 10512 10509 10506 10502 10498 10495 10491 10487 10483 10477 10472 10467 10461 10455 10449 10444 10439 10433 10427 10420 10414 10408 10403 10399 10395 10391 10388 10386 10384 10384 10384 10384 10384 10385 10385 10387 10391 10395 10399 10405 10410 10417 10424 10430 10436 10442 10450 10458 10465 10477 10493 10508 10519 10533 10548 10558 10564 10571 10580 10592 10603 10613 10624 10635 10642 10646 10651 10659 10666 10674 10683 10690 10692 10693 10698 10710 10725 10737 10746 10749 10754
10540 10534 10529 10524 10519 10515 10510 10507 10504 10500 10497 10494 10491 10487 10482 10477 10472 10466 10461 10456 10450 10445 10439 10433 10427 10421 10415 10410 10404 10399 10395 10392 10389 10386 10384 10384 10383 10384 10384 10384 10385 10387 10390 10393 10399 10404 10409 10414 10419 10425 10430 10437 10446 10454 10462 10473 10488 10502 10513 10526 10540 10551 10556 10563 10574 10586 10597 10606 10617 10629 10636 10640 10645 10651 10657 10666 10675 10681 10683 10688 10697 10709 10721 10734 10744 10748 10752
10536 10530 10525 10521 10517 10513 10509 10505 10502 10499 10496 10493 10490 10486 10482 10477 10472 10467 10461 10456 10452 10447 10441 10435 10429 10423 10417 10412 10406 10401 10396 10392 10389 10387 10385 10384 10384 10384 10384 10384 10385 10387 10390 10393 10398 10403 10407 10412 10416 10422 10428 10434 10441 10450 10458 10469 10483 10497 10506 10519 10534 10543 10549 10557 10569 10580 10590 10601 10613 10625 10631 10634 10638 10644 10650 10658 10666 10672 10677 10686 10699 10711 10718 10726 10738 10745 10749
10532 10527 10522 10518 10514 10511 10507 10503 10500 10497 10494 10492 10489 10485 10482 10477 10473 10469 10464 10458 10453 10448 10443 10437 10432 10426 10421 10415 10409 10403 10398 10393 10390 10388 10386 10385 10385 10384 10384 10385 10386 10388 10391 10394 10397 10401 10406 10410 10415 10422 10428 10433 10439 10448 10456 10466 10478 10491 10501 10513 10527 10536 10543 10551 10562 10572 10584 10595 10605 10616 10623 10626 10631 10636 10641 10648 10655 10664 10673 10683 10699 10713 10716 10718 10728 10739 10744
10528 10523 10519 10515 10512 10508 10505 10502 10499 10496 10494 10491 10488 10485 10481 10478 10474 10470 10466 10461 10456 10450 10445 10440 10435 10430 10424 10418 10412 10406 10400 10395 10392 10390 10388 10386 10386 10386 10386 10386 10386 10388 10391 10394 10397 10401 10405 10409 10414 10421 10427 10431 10437 10445 10454 10462 10474 10486 10497 10507 10519 10528 10535 10543 10553 10565 10576 10584 10592 10603 10613 10617 10621 10626 10632 10638 10647 10659 10669 10679 10694 10709 10713 10712 10720 10731 10738
10525 10520 10515 10512 10509 10506 10503 10500 10498 10496 10493 10490 10487 10484 10481 10478 10474 10471 10468 10464 10459 10454 10448 10443 10439 10433 10428 10422 10415 10409 10403 10398 10394 10392 10389 10388 10387 10387 10388 10388 10388 10389 10391 10394 10397 10400 10404 10408 10413 10419 10424 10429 10435 10442 10450 10459 10469 10480 10490 10499 10509 10519 10528 10536 10545 10555 10564 10572 10582 10595 10604 10608 10612 10619 10627 10634 10642 10652 10664 10673 10686 10699 10706 10709 10715 10724 10732
10521 10517 10512 10509 10506 10504 10501 10499 10496 10494 10492 10489 10486 10483 10480 10478 10475 10472 10468 10465 10461 10457 10452 10447 10442 10438 10432 10426 10419 10413 10408 10403 10398 10394 10392 10390 10389 10388 10389 10389 10390 10391 10392 10394 10398 10400 10403 10407 10412 10418 10424 10429 10434 10441 10449 10456 10464 10473 10482 10491 10502 10512 10521 10529 10538 10545 10554 10565 10578 10588 10595 10600 10608 10617 10625 10633 10639 10648 10658 10668 10677 10688 10698 10705 10713 10719 10724
10518 10514 10510 10506 10503 10501 10499 10497 10495 10493 10491 10488 10486 10483 10480 10477 10474 10472 10468 10465 10462 10459 10455 10450 10445 10441 10436 10430 10423 10418 10413 10408 10403 10399 10395 10393 10391 10390 10390 10390 10391 10392 10393 10396 10398 10401 10404 10407 10412 10417 10423 10429 10434 10441 10447 10453 10460 10468 10477 10486 10496 10506 10515 10522 10530 10538 10547 10560 10572 10581 10587 10595 10606 10616 10624 10631 10637 10643 10651 10661 10669 10678 10689 10700 10709 10714 10718
10515 10511 10507 10504 10501 10499 10497 10495 10493 10491 10489 10487 10485 10482 10479 10476 10474 10471 10469 10466 10463 10460 10457 10453 10449 10444 10440 10435 10429 10423 10417 10412 10408 10404 10400 10397 10394 10393 10392 10392 10392 10393 10395 10397 10399 10402 10405 10408 10412 10416 10422 10428 10434 10440 10446 10452 10458 10467 10475 10483 10492 10501 10509 10516 10523 10530 10540 10553 10566 10575 10583 10593 10604 10612 10619 10627 10632 10636 10643 10653 10660 10668 10679 10691 10701 10707 10711
10513 10509 10505 10502 10499 10496 10494 10493 10491 10489 10487 10485 10483 10481 10478 10476 10473 10471 10469 10467 10464 10462 10460 10457 10452 10448 10444 10440 10434 10428 10423 10419 10415 10410 10406 10402 10398 10396 10395 10394 10394 10395 10395 10397 10400 10403 10406 10409 10412 10416 10421 10427 10432 10439 10445 10451 10458 10466 10474 10481 10488 10495 10503 10511 10518 10525 10534 10546 10557 10566 10575 10586 10596 10603 10610 10618 10625 10629 10636 10644 10651 10658 10668 10681 10690 10696 10701
10511 10506 10503 10500 10497 10494 10492 10491 10489 10487 10485 10483 10481 10479 10477 10475 10473 10470 10468 10467 10465 10462 10460 10458 10455 10451 10448 10443 10438 10432 10429 10425 10421 10416 10412 10407 10404 10400 10398 10396 10396 10397 10397 10398 10400 10403 10406 10410 10413 10417 10421 10425 10431 10438 10444 10450 10457 10464 10472 10480 10487 10493 10500 10508 10515 10522 10530 10539 10549 10559 10569 10579 10589 10596 10603 10610 10616 10622 10628 10635 10642 10649 10658 10669 10679 10686 10691
10509 10504 10501 10498 10495 10493 10491 10489 10487 10484 10482 10480 10479 10477 10476 10474 10472 10469 10467 10466 10464 10462 10460 10458 10456 10454 10450 10446 10441 10438 10434 10430 10426 10421 10417 10413 10409 10406 10403 10400 10399 10399 10399 10400 10401 10403 10406 10409 10413 10417 10420 10424 10430 10437 10443 10449 10456 10463 10471 10478 10485 10491 10498 10505 10513 10519 10525 10533 10544 10554 10565 10576 10584 10590 10596 10601 10606 10613 10620 10626 10632 10640 10648 10657 10667 10675 10681
10507 10503 10499 10496 10494 10491 10489 10488 10485 10482 10479 10478 10477 10476 10474 10472 10470 10468 10467 10465 10464 10462 10460 10458 10456 10454 10451 10448 10445 10441 10438 10434 10430 10426 10422 10418 10415 10411 10408 10405 10403 10402 10402 10402 10403 10404 10406 10408 10412 10415 10420 10424 10429 10434 10439 10445 10452 10460 10468 10474 10480 10486 10493 10501 10509 10515 10521 10529 10540 10549 10560 10570 10578 10583 10589 10593 10597 10604 10611 10616 10623 10630 10638 10646 10655 10664 10671
10504 10501 10498 10494 10492 10490 10488 10486 10483 10480 10477 10476 10476 10475 10473 10471 10469 10468 10466 10465 10463 10461 10459 10457 10456 10454 10452 10449 10447 10444 10441 10437 10434 10431 10427 10424 10420 10417 10414 10411 10409 10407 10406 10405 10405 10406 10407 10409 10411 10414 10418 10422 10427 10431 10435 10440 10445 10452 10459 10466 10474 10482 10488 10495 10503 10510 10517 10525 10534 10545 10555 10563 10569 10576 10583 10586 10590 10596 10603 10608 10614 10621 10628 10636 10644 10652 10660
10502 10499 10496 10493 10490 10488 10486 10484 10482 10479 10476 10475 10475 10474 10472 10470 10469 10467 10466 10464 10462 10461 10459 10457 10455 10453 10452 10450 10448 10446 10444 10441 10438 10435 10431 10428 10425 10422 10419 10416 10414 10413 10412 10410 10409 10409 10409 10410 10412 10414 10417 10421 10425 10429 10433 10438 10443 10448 10453 10458 10467 10475 10483 10490 10498 10505 10513 10521 10530 10541 10551 10556 10560 10567 10574 10577 10583 10591 10598 10602 10607 10613 10619 10626 10634 10641 10649
10500 10497 10494 10491 10489 10486 10484 10482 10480 10478 10476 10474 10473 10472 10470 10469 10467 10466 10464 10463 10462 10460 10458 10456 10454 10452 10451 10450 10449 10447 10445 10443 10440 10437 10434 10432 10429 10426 10423 10421 10419 10417 10417 10416 10415 10413 10413 10413 10414 10416 10418 10420 10423 10427 10431 10436 10442 10447 10450 10454 10459 10467 10475 10484 10493 10500 10507 10515 10525 10537 10545 10547 10550 10557 10564 10570 10578 10587 10591 10594 10599 10605 10612 10618 10625 10632 10638
10499 10495 10492 10490 10487 10485 10482 10480 10478 10476 10475 10473 10472 10471 10469 10467 10466 10464 10463 10461 10460 10459 10457 10455 10454 10452 10451 10450 10448 10447 10446 10444 10441 10439 10437 10434 10432 10430 10427 10425 10423 10421 10421 10420 10419 10418 10417 10416 10417 10417 10419 10421 10423 10425 10429 10433 10437 10442 10446 10450 10455 10460 10466 10474 10484 10493 10502 10509 10518 10529 10536 10536 10538 10548 10559 10565 10571 10577 10581 10586 10591 10598 10606 10612 10618 10624 10630
10499 10495 10491 10488 10486 10483 10481 10479 10477 10475 10473 10472 10471 10469 10468 10465 10464 10462 10461 10460 10459 10458 10456 10454 10452 10451 10450 10449 10447 10446 10445 10444 10442 10440 10438 10436 10434 10432 10430 10428 10426 10424 10423 10422 10422 10421 10420 10420 10419 10419 10420 10421 10423 10425 10427 10430 10434 10437 10441 10446 10451 10455 10460 10464 10471 10480 10490 10499 10509 10520 10525 10524 10529 10542 10553 10557 10559 10564 10570 10576 10582 10590 10599 10606 10612 10618 10623
10498 10494 10491 10488 10485 10482 10479 10477 10475 10473 10472 10471 10469 10468 10466 10464 10461 10460 10459 10458 10456 10456 10454 10453 10451 10450 10449 10448 10446 10445 10444 10443 10442 10440 10438 10437 10435 10433 10431 10429 10427 10425 10424 10423 10422 10422 10422 10421 10421 10421 10421 10422 10423 10425 10427 10429 10431 10434 10438 10442 10446 10450 10454 10458 10461 10466 10473 10481 10492 10506 10515 10519 10524 10534 10542 10546 10549 10554 10562 10568 10575 10582 10591 10599 10604 10610 10616
10496 10493 10490 10487 10484 10481 10478 10476 10474 10472 10470 10469 10467 10466 10465 10462 10459 10457 10457 10456 10454 10453 10452 10451 10449 10448 10448 10447 10445 10444 10443 10442 10441 10440 10438 10437 10436 10434 10432 10430 10427 10426 10425 10424 10423 10422 10423 10423 10422 10421 10421 10422 10424 10425 10427 10428 10430 10432 10435 10439 10443 10447 10450 10453 10456 10459 10463 10467 10475 10486 10497 10504 10511 10519 10528 10536 10541 10546 10553 10561 10567 10574 10581 10588 10594 10600 10606
10495 10492 10489 10486 10483 10481 10478 10475 10473 10471 10469 10467 10465 10464 10463 10461 10458 10455 10454 10453 10452 10451 10450 10448 10447 10446 10445 10445 10444 10443 10441 10440 10440 10439 10438 10437 10435 10434 10433 10430 10428 10427 10425 10425 10424 10423 10423 10423 10423 10421 10421 10421 10422 10424 10425 10427 10429 10430 10432 10435 10438 10442 10446 10449 10452 10455 10458 10462 10468 10475 10481 10486 10490 10498 10510 10521 10528 10534 10542 10551 10558 10563 10571 10578 10584 10590 10597
10494 10491 10488 10486 10483 10480 10478 10475 10473 10471 10469 10466 10464 10462 10460 10459 10457 10455 10453 10452 10451 10449 10448 10447 10445 10444 10443 10442 10442 10440 10439 10438 10437 10437 10437 10436 10435 10434 10433 10431 10430 10428 10426 10425 10424 10423 10423 10423 10423 10422 10421 10421 10421 10422 10424 10425 10427 10428 10430 10432 10434 10436 10439 10443 10446 10450 10454 10458 10464 10470 10475 10479 10481 10487 10497 10507 10515 10523 10532 10541 10549 10556 10564 10571 10575 10582 10590
10495 10492 10489 10486 10483 10480 10478 10475 10473 10471 10469 10466 10464 10462 10459 10457 10456 10454 10452 10450 10449 10447 10446 10445 10443 10441 10440 10440 10440 10438 10436 10436 10435 10435 10435 10435 10434 10433 10432 10431 10430 10429 10427 10426 10425 10424 10423 10422 10423 10423 10422 10421 10420 10421 10422 10424 10425 10426 10427 10429 10431 10433 10435 10438 10441 10445 10450 10454 10459 10465 10472 10477 10481 10486 10494 10502 10510 10517 10525 10533 10542 10549 10556 10562 10568 10575 10583
10496 10493 10489 10486 10483 10480 10477 10475 10472 10470 10468 10466 10463 10461 10459 10457 10455 10453 10451 10449 10447 10446 10445 10443 10441 10439 10437 10437 10436 10435 10433 10432 10433 10433 10433 10433 10432 10431 10430 10430 10430 10429 10428 10426 10425 10424 10423 10422 10422 10422 10422 10421 10420 10420 10421 10422 10423 10424 10425 10426 10428 10430 10432 10435 10438 10441 10445 10449 10454 10460 10466 10472 10478 10483 10490 10497 10505 10512 10519 10526 10535 10542 10547 10553 10559 10566 10572
10495 10492 10489 10486 10483 10480 10478 10476 10473 10471 10468 10465 10463 10461 10459 10456 10454 10452 10450 10448 10446 10444 10443 10441 10439 10437 10435 10433 10433 10432 10430 10429 10429 10430 10430 10430 10429 10429 10428 10428 10427 10427 10427 10426 10424 10423 10423 10422 10421 10421 10421 10421 10420 10420 10420 10420 10421 10422 10423 10424 10425 10427 10429 10431 10434 10437 10440 10444 10447 10452 10457 10463 10470 10476 10482 10489 10497 10504 10511 10518 10526 10534 10540 10545 10550 10555 10561
10495 10493 10490 10488 10485 10482 10478 10476 10473 10470 10468 10466 10464 10461 10459 10457 10454 10452 10450 10448 10445 10443 10441 10439 10437 10436 10434 10432 10431 10429 10428 10427 10426 10426 10426 10426 10426 10425 10425 10425 10425 10424 10424 10424 10423 10423 10422 10421 10420 10420 10420 10420 10420 10419 10419 10419 10419 10420 10420 10422 10423 10425 10426 10428 10430 10433 10436 10439 10442 10446 10450 10455 10461 10467 10472 10479 10486 10494 10501 10508 10516 10524 10531 10536 10541 10546 10551
10497 10494 10491 10488 10484 10481 10478 10475 10473 10470 10468 10466 10463 10461 10459 10457 10454 10452 10450 10447 10445 10443 10440 10438 10436 10434 10432 10431 10429 10427 10426 10424 10423 10423 10423 10423 10423 10422 10422 10421 10421 10421 10421 10422 10421 10421 10420 10420 10419 10419 10419 10419 10419 10419 10418 10418 10418 10418 10419 10420 10421 10422 10424 10425 10427 10429 10431 10433 10436 10439 10443 10447 10452 10457 10463 10469 10476 10484 10492 10499 10506 10513 10520 10526 10531 10536 10542
10499 10495 10491 10487 10483 10480 10478 10476 10474 10471 10469 10467 10464 10462 10460 10457 10455 10452 10449 10447 10445 10442 10440 10437 10435 10432 10430 10429 10427 10425 10424 10422 10420 10419 10419 10419 10419 10419 10418 10417 10417 10417 10418 10418 10418 10418 10418 10418 10418 10417 10417 10417 10418 10418 10418 10417 10417 10417 10417 10418 10418 10420 10421 10422 10423 10424 10426 10428 10431 10433 10436 10439 10443 10448 10453 10460 10467 10474 10482 10489 10496 10502 10509 10516 10522 10527 10532
10499 10495 10491 10487 10484 10482 10479 10477 10475 10472 10470 10468 10465 10463 10460 10458 10454 10452 10449 10447 10444 10442 10439 10437 10434 10431 10429 10427 10425 10423 10421 10419 10418 10416 10415 10415 10415 10414 10414 10414 10413 10413 10414 10414 10414 10414 10414 10415 10415 10415 10415 10415 10416 10416 10416 10416 10415 10415 10415 10416 10416 10417 10418 10418 10419 10420 10422 10424 10426 10428 10431 10433 10437 10441 10445 10451 10457 10463 10471 10478 10485 10492 10499 10506 10513 10519 10524
10499 10496 10492 10489 10487 10484 10481 10479 10476 10474 10471 10469 10466 10463 10460 10457 10454 10451 10449 10446 10443 10441 10438 10435 10433 10430 10428 10425 10422 10420 10419 10417 10416 10414 10413 10412 10411 10410 10409 10409 10409 10409 10409 10410 10410 10410 10410 10411 10411 10412 10413 10413 10413 10413 10414 10414 10413 10413 10413 10413 10414 10414 10414 10415 10416 10417 10418 10420 10421 10423 10425 10428 10431 10434 10438 10443 10448 10453 10459 10466 10473 10481 10488 10495 10502 10509 10515
10500 10497 10494 10491 10488 10485 10482 10480 10477 10474 10471 10469 10466 10462 10459 10456 10453 10450 10448 10445 10442 10439 10437 10434 10431 10428 10426 10423 10421 10419 10417 10415 10413 10411 10410 10409 10408 10407 10406 10405 10405 10404 10405 10405 10405 10406 10406 10406 10407 10408 10409 10410 10410 10410 10410 10411 10411 10411 10411 10411 10411 10411 10412 10412 10413 10414 10415 10416 10417 10419 10421 10423 10425 10428 10431 10435 10440 10444 10449 10455 10462 10469 10476 10483 10490 10497 10505
10501 10497 10494 10491 10488 10486 10483 10480 10477 10475 10471 10468 10465 10462 10459 10456 10452 10449 10447 10444 10441 10438 10435 10433 10430 10427 10425 10422 10419 10417 10414 10412 10410 10409 10407 10405 10404 10403 10402 10402 10401 10400 10400 10400 10400 10401 10401 10402 10402 10403 10404 10406 10406 10406 10407 10407 10408 10408 10408 10408 10408 10409 10409 10409 10410 10411 10411 10412 10413 10415 10417 10418 10420 10422 10425 10428 10432 10436 10441 10446 10452 10458 10465 10471 10478 10486 10492
10502 10499 10496 10493 10490 10487 10484 10481 10478 10475 10471 10467 10464 10461 10458 10455 10452 10449 10446 10443 10440 10437 10434 10431 10428 10426 10423 10420 10418 10415 10413 10411 10408 10406 10404 10402 10400 10399 10398 10398 10397 10396 10396 10395 10395 10396 10396 10397 10397 10398 10399 10401 10401 10402 10403 10403 10404 10405 10405 10405 10405 10405 10406 10407 10407 10407 10408 10409 10410 10411 10412 10413 10415 10417 10419 10422 10425 10429 10433 10437 10442 10447 10453 10460 10466 10473 10479
10503 10500 10496 10493 10490 10487 10484 10481 10478 10475 10471 10468 10465 10463 10459 10456 10452 10449 10445 10442 10438 10435 10432 10429 10426 10424 10421 10419 10416 10413 10410 10408 10405 10403 10402 10400 10398 10396 10394 10393 10393 10392 10391 10391 10391 10391 10391 10392 10392 10393 10394 10395 10396 10397 10398 10399 10400 10400 10401 10402 10401 10402 10402 10403 10404 10404 10405 10405 10406 10407 10408 10409 10411 10412 10414 10416 10419 10422 10425 10429 10433 10438 10443 10448 10455 10462 10469
10504 10500 10497 10494 10491 10488 10485 10482 10479 10476 10473 10470 10467 10464 10461 10457 10453 10450 10446 10443 10439 10435 10432 10428 10425 10422 10419 10417 10414 10412 10409 10407 10404 10402 10400 10398 10395 10393 10391 10389 10388 10387 10387 10387 10386 10386 10385 10386 10386 10387 10388 10389 10390 10391 10393 10394 10395 10396 10397 10397 10398 10398 10398 10399 10400 10401 10401 10402 10403 10404 10405 10406 10407 10408 10410 10411 10414 10416 10419 10422 10425 10429 10433 10438 10445 10452 10459